World > North America > United States > South Dakota > Alcester  

Alcester, SD Hourly Weather Updates

Feedback E-mail the Weather

Quick Clicks

Alcester, SD Weather Maps

°F °C°F °C
Alcester Weather Map
UTC Time: 5/24/2024, 22:21
Your Time:

Alcester, SD Regional Weather

Expires:202405242200;;802488
ASUS43 KFSD 242110
RWRFSD

WEATHER ROUNDUP FOR SE SOUTH DAKOTA/SW MINNESOTA/NW IOWA
NATIONAL WEATHER SERVICE SIOUX FALLS SD
400 PM CDT FRI MAY 24 2024

NOTE: "FAIR" INDICATES FEW OR NO CLOUDS BELOW 12,000 FEET WITH NO
SIGNIFICANT WEATHER AND OR OBSTRUCTIONS TO VISIBILITY.



IAZ001>003-012>014-020>022-031-032-NEZ013-014-SDZ071-242200-
NORTHWEST IOWA
  
CITY           SKY/WX    TMP DP  RH WIND       PRES   REMARKS
DENISON        SUNNY     66  52  59 W22       29.76S TC  19           
ESTHERVILLE    PTSUNNY   61  46  57 W22G41    29.68R TC  16           
MAURICE        MOSUNNY   61  48  63 W29G38    29.71R TC  16           
SHELDON        MOSUNNY   61  46  59 W29G38    29.68S TC  16           
SIOUX CITY     SUNNY     66  47  50 NW22G31   29.75R TC  19           
SPENCER        PTSUNNY   65  47  52 W24G40    29.69R TC  18           
STORM LAKE     MOSUNNY   63  50  63 W26G36    29.72R TC  17           
$$
 
ABBREVIATIONS USED IN REMARKS
   TC - TEMPERATURE IN CELSIUS
  WCI - WIND CHILL INDEX
   HX - HEAT INDEX
  VSB - VISIBILITY

  

SKY/WX - Weather  TMP - Temperature  DP - Dew Point  RH - Humidity
WIND - Wind Direction/Speed PRES - Barometric Pressure VSB - Visibility
WCI - Wind Chill Index E13G22 Wind - East Wind 13 mph/Gusts of 22 mph

Trending Headlines

Trending Entertainment Headlines

Alcester Radar Loop

Use the map search tool if you want to place a location marker on the radar map...

Alcester Quick Facts

National Two Day Weather Forecast


E-mail the Alcester Weather Forecast

Voice your opinion or tell us about page issues...